timestamp,wind_dir_avg,wind_spd_avg,wind_spd_max_dir,wind_spd_gust,battery_voltage,lat,long
2021-09-01 00:04:00+00:00,132.0,3.82,142.0,4.7,12.65,47.59359,-54.27349
2021-09-01 00:14:01+00:00,125.0,3.93,126.0,4.42,12.65,47.59359,-54.27349
2021-09-01 00:24:01+00:00,136.0,3.35,138.0,3.76,12.65,47.59359,-54.27349
2021-09-01 00:34:01+00:00,143.0,4.34,136.0,4.99,12.65,47.59359,-54.27349
2021-09-01 00:44:01+00:00,150.0,4.78,149.0,5.55,12.65,47.59359,-54.27349
2021-09-01 00:54:01+00:00,146.0,5.38,144.0,5.98,12.65,47.59359,-54.27349
2021-09-01 01:04:01+00:00,161.0,4.85,162.0,5.21,12.65,47.59359,-54.27349
2021-09-01 01:14:01+00:00,156.0,4.15,160.0,4.67,12.65,47.59359,-54.27349
2021-09-01 01:24:01+00:00,146.0,4.14,150.0,4.5,12.65,47.59359,-54.27349
2021-09-01 01:34:01+00:00,153.0,3.29,157.0,3.92,12.65,47.59359,-54.27349
2021-09-01 01:44:01+00:00,166.0,4.09,166.0,4.52,12.65,47.59359,-54.27349
2021-09-01 01:54:01+00:00,156.0,4.2,157.0,4.71,12.65,47.59359,-54.27349
2021-09-01 02:04:01+00:00,163.0,3.89,160.0,4.22,12.65,47.59359,-54.27349
2021-09-01 02:14:00+00:00,167.0,2.49,171.0,2.99,12.65,47.59359,-54.27349
2021-09-01 02:24:00+00:00,169.0,2.83,167.0,3.21,12.65,47.59359,-54.27349
2021-09-01 02:34:00+00:00,145.0,2.82,141.0,3.27,12.65,47.59359,-54.27349
2021-09-01 02:44:00+00:00,145.0,2.76,142.0,3.09,12.65,47.59359,-54.27349
2021-09-01 02:54:00+00:00,131.0,1.9,142.0,2.34,12.65,47.59359,-54.27349
2021-09-01 03:04:00+00:00,132.0,2.35,139.0,2.86,12.65,47.59359,-54.27349
2021-09-01 03:14:01+00:00,130.0,2.26,134.0,2.62,12.65,47.59359,-54.27349
2021-09-01 03:24:01+00:00,127.0,2.34,126.0,2.75,12.65,47.59359,-54.27349
2021-09-01 03:34:01+00:00,103.0,0.6,135.0,1.09,12.65,47.59359,-54.27349
2021-09-01 03:44:01+00:00,108.0,0.12,84.0,0.25,12.65,47.59359,-54.27349
2021-09-01 03:54:01+00:00,358.0,0.31,336.0,0.53,12.65,47.59359,-54.27349
2021-09-01 04:04:01+00:00,150.0,0.34,178.0,0.52,12.65,47.59359,-54.27349
2021-09-01 04:14:01+00:00,150.0,1.46,150.0,1.68,12.57,47.59359,-54.27349
2021-09-01 04:24:01+00:00,164.0,1.82,164.0,2.15,12.57,47.59359,-54.27349
2021-09-01 04:34:01+00:00,151.0,1.49,146.0,2.26,12.57,47.59359,-54.27349
2021-09-01 04:44:01+00:00,146.0,1.73,146.0,1.91,12.57,47.59359,-54.27349
2021-09-01 04:54:01+00:00,161.0,2.28,163.0,2.63,12.57,47.59359,-54.27349
2021-09-01 05:04:01+00:00,156.0,2.13,157.0,2.56,12.57,47.59359,-54.27349
2021-09-01 05:14:00+00:00,165.0,1.6,163.0,1.8,12.57,47.59359,-54.27349
2021-09-01 05:24:00+00:00,156.0,1.58,153.0,1.83,12.57,47.59359,-54.27349
2021-09-01 05:34:00+00:00,173.0,1.08,178.0,1.2,12.57,47.59359,-54.27349
2021-09-01 05:44:00+00:00,169.0,1.61,173.0,1.77,12.57,47.59359,-54.27349
2021-09-01 05:54:00+00:00,173.0,1.45,167.0,1.65,12.57,47.59359,-54.27349
2021-09-01 06:04:00+00:00,164.0,1.72,159.0,1.99,12.57,47.59359,-54.27349
2021-09-01 06:14:01+00:00,147.0,0.92,152.0,1.02,12.57,47.59359,-54.27349
2021-09-01 06:24:01+00:00,158.0,0.74,171.0,1.0,12.57,47.59359,-54.27349
2021-09-01 06:34:01+00:00,205.0,0.38,211.0,0.48,12.57,47.59359,-54.27349
2021-09-01 06:44:01+00:00,192.0,1.21,196.0,1.43,12.57,47.59359,-54.27349
2021-09-01 06:54:01+00:00,239.0,1.55,241.0,1.78,12.57,47.59359,-54.27349
2021-09-01 07:04:01+00:00,240.0,1.31,236.0,1.58,12.57,47.59359,-54.27349
2021-09-01 07:14:00+00:00,138.0,0.46,144.0,0.7,12.57,47.59359,-54.27349
2021-09-01 07:24:00+00:00,147.0,0.2,143.0,0.37,12.57,47.59359,-54.27349
2021-09-01 07:34:00+00:00,45.0,0.41,38.0,0.65,12.57,47.59359,-54.27349
2021-09-01 07:44:00+00:00,146.0,2.19,149.0,2.41,12.57,47.59359,-54.27349
2021-09-01 07:54:00+00:00,146.0,1.84,149.0,2.09,12.57,47.59359,-54.27349
2021-09-01 08:04:00+00:00,141.0,1.97,142.0,2.16,12.57,47.59359,-54.27349
2021-09-01 08:14:01+00:00,145.0,2.06,149.0,2.37,12.49,47.59359,-54.27349
2021-09-01 08:24:01+00:00,141.0,1.54,143.0,1.8,12.49,47.59359,-54.27349
2021-09-01 08:34:01+00:00,131.0,1.81,141.0,2.03,12.49,47.59359,-54.27349
2021-09-01 08:44:01+00:00,138.0,1.51,137.0,1.74,12.49,47.59359,-54.27349
2021-09-01 08:54:01+00:00,124.0,1.2,127.0,1.46,12.49,47.59359,-54.27349
2021-09-01 09:04:01+00:00,126.0,1.37,139.0,1.63,12.49,47.59359,-54.27349
2021-09-01 09:14:00+00:00,133.0,1.55,140.0,1.8,12.41,47.59359,-54.27349
2021-09-01 09:24:00+00:00,109.0,1.51,116.0,2.33,12.41,47.59359,-54.27349
2021-09-01 09:34:00+00:00,102.0,1.4,97.0,2.39,12.41,47.59359,-54.27349
2021-09-01 09:44:00+00:00,137.0,2.39,142.0,2.71,12.41,47.59359,-54.27349
2021-09-01 09:54:00+00:00,135.0,1.93,142.0,2.29,12.41,47.59359,-54.27349
2021-09-01 10:04:00+00:00,143.0,1.62,145.0,1.83,12.41,47.59359,-54.27349
2021-09-01 10:14:01+00:00,152.0,1.4,156.0,1.64,12.73,47.59359,-54.27349
2021-09-01 10:24:01+00:00,156.0,1.4,159.0,1.61,12.73,47.59359,-54.27349
2021-09-01 10:34:01+00:00,156.0,0.94,158.0,1.31,12.73,47.59359,-54.27349
2021-09-01 10:44:01+00:00,192.0,0.96,192.0,1.26,12.73,47.59359,-54.27349
2021-09-01 10:54:01+00:00,42.0,0.32,53.0,0.43,12.73,47.59359,-54.27349
2021-09-01 11:04:01+00:00,254.0,0.65,267.0,0.91,12.73,47.59359,-54.27349
2021-09-01 11:14:01+00:00,273.0,0.19,277.0,0.28,13.29,47.59359,-54.27349
2021-09-01 11:24:01+00:00,3.0,0.45,357.0,0.77,13.29,47.59359,-54.27349
2021-09-01 11:34:01+00:00,168.0,0.15,155.0,0.42,13.29,47.59359,-54.27349
2021-09-01 11:44:01+00:00,9.0,0.41,336.0,0.62,13.29,47.59359,-54.27349
2021-09-01 11:54:01+00:00,85.0,0.36,95.0,0.55,13.29,47.59359,-54.27349
2021-09-01 12:04:01+00:00,113.0,1.28,105.0,1.44,13.29,47.59359,-54.27349
2021-09-01 12:14:01+00:00,195.0,0.72,185.0,0.97,13.76,47.59359,-54.27349
2021-09-01 12:24:01+00:00,180.0,1.54,184.0,1.76,13.76,47.59359,-54.27349
2021-09-01 12:34:01+00:00,157.0,0.39,154.0,0.62,13.76,47.59359,-54.27349
2021-09-01 12:44:01+00:00,341.0,0.18,327.0,0.41,13.76,47.59359,-54.27349
2021-09-01 12:54:01+00:00,257.0,0.64,276.0,0.8,13.76,47.59359,-54.27349
2021-09-01 13:04:01+00:00,233.0,1.09,238.0,1.31,13.76,47.59359,-54.27349
2021-09-01 13:14:01+00:00,261.0,0.85,261.0,1.13,13.76,47.59359,-54.27349
2021-09-01 13:24:01+00:00,275.0,1.71,277.0,2.02,13.76,47.59359,-54.27349
2021-09-01 13:34:01+00:00,306.0,1.85,308.0,2.06,13.76,47.59359,-54.27349
2021-09-01 13:44:01+00:00,292.0,1.61,291.0,1.87,13.76,47.59359,-54.27349
2021-09-01 13:54:01+00:00,286.0,0.96,286.0,1.16,13.76,47.59359,-54.27349
2021-09-01 14:04:01+00:00,268.0,1.0,269.0,1.12,13.76,47.59359,-54.27349
2021-09-01 14:14:01+00:00,234.0,1.18,220.0,1.7,13.84,47.59359,-54.27349
2021-09-01 14:24:01+00:00,242.0,1.7,243.0,1.97,13.84,47.59359,-54.27349
2021-09-01 14:34:01+00:00,249.0,1.25,234.0,1.47,13.84,47.59359,-54.27349
2021-09-01 14:44:01+00:00,311.0,0.63,318.0,0.8,13.84,47.59359,-54.27349
2021-09-01 14:54:01+00:00,24.0,0.47,26.0,0.68,13.84,47.59359,-54.27349
2021-09-01 15:04:01+00:00,323.0,0.79,333.0,0.99,13.84,47.59359,-54.27349
2021-09-01 15:14:01+00:00,28.0,0.66,20.0,0.93,14.08,47.59359,-54.27349
2021-09-01 15:24:01+00:00,26.0,0.54,29.0,0.83,14.08,47.59359,-54.27349
2021-09-01 15:34:01+00:00,65.0,0.53,68.0,0.62,14.08,47.59359,-54.27349
2021-09-01 15:44:01+00:00,178.0,0.42,183.0,0.66,14.08,47.59359,-54.27349
2021-09-01 15:54:01+00:00,350.0,0.6,0.0,0.99,14.08,47.59359,-54.27349
2021-09-01 16:04:01+00:00,149.0,0.87,151.0,1.08,14.08,47.59359,-54.27349
2021-09-01 16:14:01+00:00,175.0,0.41,172.0,0.5,13.6,47.59359,-54.27349
2021-09-01 16:24:01+00:00,319.0,0.19,287.0,0.67,13.6,47.59359,-54.27349
2021-09-01 16:34:01+00:00,290.0,0.87,303.0,1.2,13.6,47.59359,-54.27349
2021-09-01 16:44:01+00:00,336.0,1.29,336.0,1.8,13.6,47.59359,-54.27349
2021-09-01 16:54:01+00:00,327.0,1.85,325.0,2.27,13.6,47.59359,-54.27349
2021-09-01 17:04:01+00:00,337.0,2.04,339.0,2.53,13.6,47.59359,-54.27349
2021-09-01 17:14:01+00:00,341.0,1.92,341.0,2.26,14.24,47.59359,-54.27349
2021-09-01 17:24:01+00:00,337.0,1.9,348.0,2.35,14.24,47.59359,-54.27349
2021-09-01 17:34:01+00:00,346.0,2.17,346.0,2.44,14.24,47.59359,-54.27349
2021-09-01 17:44:01+00:00,342.0,1.93,341.0,2.16,14.24,47.59359,-54.27349
2021-09-01 17:54:01+00:00,349.0,1.4,352.0,1.53,14.24,47.59359,-54.27349
2021-09-01 18:04:01+00:00,349.0,1.77,348.0,2.01,14.24,47.59359,-54.27349
2021-09-01 18:14:01+00:00,357.0,1.64,353.0,1.84,14.0,47.59359,-54.27349
2021-09-01 18:24:01+00:00,348.0,0.72,354.0,0.86,14.0,47.59359,-54.27349
2021-09-01 18:34:01+00:00,248.0,0.24,264.0,0.78,14.0,47.59359,-54.27349
2021-09-01 18:44:01+00:00,165.0,1.15,163.0,1.4,14.0,47.59359,-54.27349
2021-09-01 18:54:01+00:00,155.0,1.73,146.0,2.02,14.0,47.59359,-54.27349
2021-09-01 19:04:01+00:00,168.0,1.83,167.0,2.03,14.0,47.59359,-54.27349
2021-09-01 19:14:01+00:00,169.0,1.85,168.0,1.98,13.84,47.59359,-54.27349
2021-09-01 19:24:01+00:00,176.0,3.23,177.0,3.43,13.84,47.59359,-54.27349
2021-09-01 19:34:01+00:00,181.0,2.77,181.0,2.92,13.84,47.59359,-54.27349
2021-09-01 19:44:01+00:00,174.0,2.84,171.0,3.07,13.84,47.59359,-54.27349
2021-09-01 19:54:01+00:00,206.0,2.71,205.0,3.0,13.84,47.59359,-54.27349
2021-09-01 20:04:01+00:00,234.0,2.85,232.0,3.17,13.84,47.59359,-54.27349
2021-09-01 20:14:01+00:00,238.0,3.03,242.0,3.3,13.76,47.59359,-54.27349
2021-09-01 20:24:01+00:00,237.0,3.18,241.0,3.36,13.76,47.59359,-54.27349
2021-09-01 20:34:01+00:00,243.0,3.44,243.0,3.75,13.76,47.59359,-54.27349
2021-09-01 20:44:01+00:00,247.0,3.38,248.0,3.58,13.76,47.59359,-54.27349
2021-09-01 20:54:01+00:00,250.0,2.89,246.0,3.27,13.76,47.59359,-54.27349
2021-09-01 21:04:01+00:00,249.0,2.57,243.0,2.92,13.76,47.59359,-54.27349
2021-09-01 21:14:01+00:00,233.0,1.77,237.0,2.43,13.44,47.59359,-54.27349
2021-09-01 21:24:01+00:00,218.0,1.59,198.0,1.98,13.44,47.59359,-54.27349
2021-09-01 21:34:01+00:00,220.0,2.65,220.0,2.95,13.44,47.59359,-54.27349
2021-09-01 21:44:01+00:00,199.0,2.72,200.0,3.1,13.44,47.59359,-54.27349
2021-09-01 21:54:01+00:00,196.0,3.1,199.0,3.43,13.44,47.59359,-54.27349
2021-09-01 22:04:01+00:00,194.0,4.24,194.0,4.46,13.44,47.59359,-54.27349
2021-09-01 22:14:01+00:00,200.0,4.1,199.0,4.34,13.13,47.59359,-54.27349
2021-09-01 22:24:01+00:00,205.0,4.5,206.0,4.86,13.13,47.59359,-54.27349
2021-09-01 22:34:01+00:00,202.0,3.46,203.0,3.79,13.13,47.59359,-54.27349
2021-09-01 22:44:01+00:00,206.0,3.57,202.0,3.97,13.13,47.59359,-54.27349
2021-09-01 22:54:01+00:00,200.0,4.86,206.0,5.45,13.13,47.59359,-54.27349
2021-09-01 23:04:01+00:00,207.0,6.02,208.0,6.5,13.13,47.59359,-54.27349
2021-09-01 23:14:01+00:00,212.0,5.6,214.0,6.11,12.65,47.59359,-54.27349
2021-09-01 23:24:01+00:00,213.0,5.37,222.0,6.04,12.65,47.59359,-54.27349
2021-09-01 23:34:01+00:00,228.0,6.07,232.0,6.93,12.65,47.59359,-54.27349
2021-09-01 23:44:01+00:00,226.0,4.1,228.0,4.81,12.65,47.59359,-54.27349
2021-09-01 23:54:01+00:00,213.0,4.84,215.0,5.24,12.65,47.59359,-54.27349
